Regional Weather Roundup
Issued by NWS

Home | Current Version | Previous Version | Graphics & Text | Print | Product List | Glossary On
Versions: 1 2 3 4 5 6 7 8 9 10 11 12 13 14 15 16 17 18 19 20 21 22 23 24 25 26 27 28 29 30 31 32 33 34 35 36 37 38 39 40 41 42 43 44 45 46 47 48 49 50
000
ASUS43 KOAX 191210
RWRNE

WEATHER ROUNDUP FOR NEBRASKA
NATIONAL WEATHER SERVICE OMAHA NE
700 AM CDT SAT AUG 19 2017

NOTES: SATELLITE DATA IS BEING USED TO AUGMENT CLOUD COVER ABOVE
       12000 FEET.
       "FAIR" INDICATES FEW OR NO CLOUDS BELOW 12,000 FEET WITH NO
       SIGNIFICANT WEATHER AND/OR OBSTRUCTIONS TO VISIBILITY.


NEZ001>004-019>022-054>056-191300-
NEBRASKA PANHANDLE

CITY           SKY/WX    TMP DP  RH WIND       PRES   REMARKS
SCOTTSBLUFF    CLEAR     59  52  77 E6        29.97F
6HR MIN TEMP:  58; 6HR MAX TEMP:  66;

ALLIANCE       CLEAR     56  52  86 SE9       29.97F
6HR MIN TEMP:  55; 6HR MAX TEMP:  64;

CHADRON        CLEAR     56  49  77 NE3       29.91F
6HR MIN TEMP:  56; 6HR MAX TEMP:  73;

GORDON         FAIR      57  51  78 CALM      29.94F
6HR MIN TEMP:  56; 6HR MAX TEMP:  62;

SIDNEY         CLEAR     65  55  70 SW17      30.03S
6HR MIN TEMP:  58; 6HR MAX TEMP:  65;

$$

NEZ057>060-069>072-079>082-191300-
SOUTHWEST NEBRASKA

CITY           SKY/WX    TMP DP  RH WIND       PRES   REMARKS
NORTH PLATTE   CLEAR     56  55  97 E6        30.01S
6HR MIN TEMP:  56; 6HR MAX TEMP:  64;

IMPERIAL       CLEAR     60  53  77 SW7       30.02S
6HR MIN TEMP:  56; 6HR MAX TEMP:  68;

LEXINGTON      CLEAR     60  57  92 SE3       30.01R
MCCOOK         CLEAR     56  54  93 E6        30.00F
6HR MIN TEMP:  56; 6HR MAX TEMP:  67;

OGALLALA       CLEAR     61  56  83 SW3       30.00S
$$

NEZ005>010-023>029-035>040-094-191300-
NORTH CENTRAL NEBRASKA

CITY           SKY/WX    TMP DP  RH WIND       PRES   REMARKS
VALENTINE      CLEAR     64  54  69 S7        29.96S
6HR MIN TEMP:  63; 6HR MAX TEMP:  66;

AINSWORTH      CLEAR     59  57  94 S8        29.98R
BROKEN BOW     CLEAR     55  53  93 CALM      30.00R
6HR MIN TEMP:  55; 6HR MAX TEMP:  66;

O`NEILL        CLEAR     57  57 100 S5        29.98S
ORD            FOG       56  54  93 CALM      29.97F VSB 3/4
6HR MIN TEMP:  56; 6HR MAX TEMP:  61;

THEDFORD       CLEAR     60  56  89 S7        29.99F
$$

NEZ041-046>049-061>064-073>077-083>087-191300-
SOUTH CENTRAL NEBRASKA

CITY           SKY/WX    TMP DP  RH WIND       PRES   REMARKS
GRAND ISLAND   CLEAR     57  57 100 SW3       30.00S
6HR MIN TEMP:  57; 6HR MAX TEMP:  67;

AURORA         CLEAR     58  57  99 E3        29.99S
HASTINGS       CLEAR     64  59  83 SE3       30.01S
6HR MIN TEMP:  61; 6HR MAX TEMP:  69;

HEBRON         CLEAR     60  59  97 CALM      30.00S FOG
HOLDREGE       CLEAR     57  55  91 SE3       30.01R
KEARNEY        CLEAR     60  58  92 SE5       30.00F
YORK           CLEAR     57  57 100 CALM      29.99F
$$

NEZ011>018-030>034-042>045-191300-
NORTHEAST NEBRASKA

CITY           SKY/WX    TMP DP  RH WIND       PRES   REMARKS
NORFOLK        CLEAR     53  53 100 CALM      29.98R
6HR MIN TEMP:  52; 6HR MAX TEMP:  64;

ALBION         CLEAR     55  55  97 CALM      29.99S
BLAIR          CLEAR     60  58  92 N7        29.97S FOG
COLUMBUS       CLEAR     54  53  97 CALM      29.99R FOG
FREMONT        CLEAR     57  56  95 CALM      29.98R
TEKAMAH        CLEAR     55  53  93 NW7       29.96S FOG
6HR MIN TEMP:  55; 6HR MAX TEMP:  65;

WAYNE          CLEAR     51  49  91 SW3       29.98S FOG
$$

NEZ050>053-065>068-078-088>093-191300-
SOUTHEAST NEBRASKA

CITY           SKY/WX    TMP DP  RH WIND       PRES   REMARKS
LINCOLN        CLEAR     59  56  89 N6        29.99R
6HR MIN TEMP:  58; 6HR MAX TEMP:  70;

OMAHA EPPLEY   CLEAR     60  56  86 N6        29.97R
6HR MIN TEMP:  59; 6HR MAX TEMP:  70;

BEATRICE       CLEAR     60  59  96 CALM      29.98R
FALLS CITY     CLEAR     62  61  96 NW5       29.96R
6HR MIN TEMP:  62; 6HR MAX TEMP:  67;

NEBRASKA CITY  CLEAR     62  62 100 N3        29.98R
PLATTSMOUTH    CLEAR     60  58  92 W3        29.97S
$$

NEZ044-045-051>053-067-191300-
OMAHA AREA

CITY           SKY/WX    TMP DP  RH WIND       PRES   REMARKS
OMAHA EPPLEY   CLEAR     60  56  86 N6        29.97R
6HR MIN TEMP:  59; 6HR MAX TEMP:  70;

BLAIR          CLEAR     60  58  92 N7        29.97S FOG
FREMONT        CLEAR     57  56  95 CALM      29.98R
MILLARD        CLEAR     62  60  93 CALM      29.98R
OFFUTT AFB     CLEAR     57  56  94 CALM      29.97R
PLATTSMOUTH    CLEAR     60  58  92 W3        29.97S
WAHOO          FAIR      57  56  97 CALM      29.98S
$$




USA.gov is the U.S. government's official web portal to all federal, state and local government web resources and services.